Regional Weather Roundup
Issued by NWS

Home | Current Version | Previous Version | Text Only | Print | Product List | Glossary On
Versions: 1 2 3 4 5 6 7 8 9 10 11 12 13 14 15 16 17 18 19 20 21 22 23 24 25 26 27 28 29 30 31 32 33 34 35 36 37 38 39 40 41 42 43 44 45 46 47 48 49 50
000
ASUS45 KBOU 211310
RWRCO

WEATHER ROUNDUP FOR COLORADO
NATIONAL WEATHER SERVICE DENVER/BOULDER CO
600 AM MST FRI FEB 21 2020

NOTE: "FAIR" INDICATES FEW OR NO CLOUDS BELOW 12000 FEET WITH NO
SIGNIFICANT WEATHER AND/OR OBSTRUCTIONS TO VISIBILITY.

COZ001>005-013-030-031-211400-
...NORTHWEST COLORADO...

CITY           SKY/WX    TMP DP  RH WIND       PRES   REMARKS
CRAIG          FAIR     -22 -28  74 CALM      30.45R
HAYDEN         FAIR       3  -7  63 E12       30.42R WCI -13
MEEKER         FAIR      -9 -15  75 CALM      30.41R
RANGELY        FAIR      -1  -6  80 E8        30.49R WCI -16
RABBIT EARS PA FAIR      14   0  52 W7        30.33S WCI   4
STEAMBOAT SPGS FAIR      -7 -10  89 CALM      30.40S
WALDEN         NOT AVBL
$$

COZ006>008-011-211400-
...WEST CENTRAL VALLEYS...

CITY           SKY/WX    TMP DP  RH WIND       PRES   REMARKS
GRAND JUNCTION FAIR      15   5  64 CALM      30.42R
MONTROSE       FAIR      20   9  62 SE6       30.44S WCI  12
EAGLE          FAIR       1  -4  79 S3        30.54R
RIFLE          FAIR      11   1  64 E3        30.46R
DELTA          FAIR      17   7  64 CALM      30.44S
NUCLA          FAIR      23  10  58 SE3       30.41S
$$

COZ017>023-064>068-211400-
...SOUTHWEST COLORADO...

CITY           SKY/WX    TMP DP  RH WIND       PRES   REMARKS
DURANGO        FAIR      20  12  71 S3        30.39F
CORTEZ         FAIR      20  11  68 S5        30.36S WCI  13
PAGOSA SPRINGS FAIR      21   9  61 CALM      30.42S
TELLURIDE      FAIR      27   9  46 SE6       30.39S WCI  20
WOLF CREEK PAS FAIR      14   0  52 S14       30.45S WCI  -1
$$

COZ009-010-012-014-032>034-037-058>063-211400-
...CENTRAL COLORADO...

CITY           SKY/WX    TMP DP  RH WIND       PRES   REMARKS
ASPEN          FAIR       1 -10  60 S6        30.38R WCI -10
BUENA VISTA    FAIR      11  -1  57 CALM      30.39R
COPPER MTN     FAIR      21 -47   3 SW7       30.37R WCI  13
BERTHOUD PASS  FAIR      12   0  57 NW25G41   30.31R WCI  -8
DAKOTA HILL    FAIR      19 -31   9 W17G28    30.30S WCI   4
COTTONWOOD PAS FAIR      28 -17  13 N3        30.35R
GUNNISON       FAIR      -4 -10  75 NE5       30.52R WCI -15
GRANBY         FAIR     -14 -18  82 CALM      30.45S
KREMMLING      FAIR     -24 -27  83 CALM      30.54R
LEADVILLE      FAIR       2 -22  31 NE3       30.34S
MONARCH PASS   FAIR      16 -18  20 W37       30.47R WCI  -6
SALIDA           N/A     17  -2  44 N10       30.46S WCI   4
SUNLIGHT       NOT AVBL
WILKERSON PASS FAIR      19 -29  10 W8        30.36R WCI   9
$$

COZ069>075-211400-
...SAN LUIS VALLEY/SANGRE DE CRISTO MOUNTAINS...

CITY           SKY/WX    TMP DP  RH WIND       PRES   REMARKS
ALAMOSA        FAIR      16   8  71 CALM      30.43S
DEL NORTE      FAIR      18   5  57 W7        30.43S WCI   9
LA VETA PASS   FAIR      18  12  79 W21G29    30.30S WCI   1
SAGUACHE       FAIR      16   1  53 NW10      30.45R WCI   3
$$

COZ035-036-038>040-211400-
...NORTHERN COLORADO FRONT RANGE...

CITY           SKY/WX    TMP DP  RH WIND       PRES   REMARKS
DENVER INTL AP FAIR      20   4  50 SW14      30.27S WCI   7
AURORA         PTCLDY    23   3  42 S12       30.27S WCI  11
FRONT RANGE AP NOT AVBL
ERIE MUNI ARPT FAIR      10   6  84 CALM      30.34F
BOULDER MUN AP FAIR      19  12  73 S7        30.27F WCI  10
CENTENNIAL     FAIR      18   1  47 SE6       30.27S WCI  10
BROOMFIELD     FAIR      30   3  31 NW5       30.27S WCI  25
FORT COLLINS   FAIR      10   6  84 CALM      30.28F
LONGMONT       FAIR       7   1  74 SW3       30.31S
$$

COZ041-046-047-076>085-087-088-211400-
...PIKES PEAK/PALMER DIVIDE AND SOUTHERN FOOTHILLS...

CITY           SKY/WX    TMP DP  RH WIND       PRES   REMARKS
COLO. SPRINGS  FAIR      17   3  54 NE9       30.28S WCI   6
A. F. ACADEMY  FAIR      20   0  41 N12       30.25F WCI   7
SCHRIEVER AFB  NOT AVBL
CHEYENNE MTN   FAIR      30   0  28 W5        30.22F WCI  25
ELLICOTT       NOT AVBL
FALCON         FAIR      26  -3  28 NW10      30.28S WCI  16
FORT CARSON    NOT AVBL
LIMON          FAIR       2  -2  83 CALM      30.29S
MONUMENT HILL  FAIR      27  -6  24 MISG      30.29S
CANON CITY     FAIR      30  12  47 W23       30.30S WCI  17
WALSENBURG     NOT AVBL
TRINIDAD       FAIR      26  17  68 W14       30.31F WCI  14
$$

COZ042>045-048>051-090-091-211400-
...NORTHEAST COLORADO...

CITY           SKY/WX    TMP DP  RH WIND       PRES   REMARKS
GREELEY ARPT   FAIR      10   6  84 CALM      30.31F
AKRON          FAIR      17  11  77 W13       30.27F WCI   4
BURLINGTON     FAIR      22  17  81 SW14      30.32S WCI   9
WRAY           FAIR       9   3  78 W7        30.31S WCI  -3
YUMA           FAIR      12   7  79 W13       30.28F WCI  -3
STERLING       FAIR       9   7  92 SW6       30.30S WCI  -1
HOLYOKE        FAIR      14  10  85 W7        30.28F WCI   4
FORT MORGAN    FAIR       8   4  83 E10       30.30S WCI  -6
$$

COZ086-089-092>099-211400-
...SOUTHEAST COLORADO...

CITY           SKY/WX    TMP DP  RH WIND       PRES   REMARKS
PUEBLO         FAIR      13   9  84 W5        30.33S WCI   5
LA JUNTA       FOG        9   5  84 W7        30.35F VSB 1/4 WCI  -2
LAMAR          FOG       10   8  92 CALM      30.37F VSB 1/2
SPRINGFIELD      N/A     13  10  88 SW9       30.34F WCI   1
$$



USA.gov is the U.S. government's official web portal to all federal, state and local government web resources and services.